TimeEST,TemperatureF,Dew PointF,Humidity,Sea Level PressureIn,VisibilityMPH,Wind Direction,Wind SpeedMPH,Gust SpeedMPH,PrecipitationIn,Events,Conditions,WindDirDegrees,DateUTC
12:51 AM,8.1,6.1,92,30.07,10.0,Calm,Calm,-,N/A,,Scattered Clouds,0,2013-02-03 05:51:00
1:41 AM,6.8,5.0,92,29.99,10.0,Calm,Calm,-,N/A,,Scattered Clouds,0,2013-02-03 06:41:00
1:51 AM,5.0,3.9,95,30.07,10.0,Calm,Calm,-,N/A,,Mostly Cloudy,0,2013-02-03 06:51:00
2:48 AM,10.4,8.6,92,29.98,2.0,Calm,Calm,-,N/A,,Overcast,0,2013-02-03 07:48:00
2:51 AM,10.0,8.1,92,30.06,3.0,Calm,Calm,-,N/A,,Overcast,0,2013-02-03 07:51:00
2:58 AM,10.4,8.6,92,29.98,1.8,Calm,Calm,-,N/A,,Overcast,0,2013-02-03 07:58:00
3:00 AM,10.4,8.6,92,29.98,1.0,Calm,Calm,-,N/A,,Mist,0,2013-02-03 08:00:00
3:10 AM,10.4,8.6,92,29.98,0.8,Calm,Calm,-,N/A,,Overcast,0,2013-02-03 08:10:00
3:51 AM,9.0,9.0,100,30.05,0.2,Calm,Calm,-,N/A,Fog,Light Freezing Fog,0,2013-02-03 08:51:00
4:16 AM,8.6,6.8,92,29.97,1.2,Calm,Calm,-,N/A,,Overcast,0,2013-02-03 09:16:00
4:19 AM,8.6,8.6,100,29.97,2.0,Calm,Calm,-,N/A,,Overcast,0,2013-02-03 09:19:00
4:29 AM,8.6,6.8,92,29.97,8.0,Calm,Calm,-,N/A,,Overcast,0,2013-02-03 09:29:00
4:49 AM,8.6,8.6,100,29.97,1.5,Calm,Calm,-,N/A,,Overcast,0,2013-02-03 09:49:00
4:51 AM,8.1,8.1,100,30.04,1.2,Calm,Calm,-,N/A,,Overcast,0,2013-02-03 09:51:00
4:54 AM,8.6,6.8,92,29.97,0.8,Calm,Calm,-,N/A,,Overcast,0,2013-02-03 09:54:00
5:51 AM,8.1,7.0,95,30.04,0.5,Calm,Calm,-,N/A,Fog,Light Freezing Fog,0,2013-02-03 10:51:00
6:10 AM,8.6,6.8,92,29.96,1.0,Calm,Calm,-,N/A,,Mist,0,2013-02-03 11:10:00
6:23 AM,8.6,6.8,92,29.95,1.5,Calm,Calm,-,N/A,,Overcast,0,2013-02-03 11:23:00
6:29 AM,8.6,6.8,92,29.95,3.0,Calm,Calm,-,N/A,,Overcast,0,2013-02-03 11:29:00
6:45 AM,8.6,6.8,92,29.96,1.8,Calm,Calm,-,N/A,,Overcast,0,2013-02-03 11:45:00
6:51 AM,8.1,7.0,95,30.04,1.2,Calm,Calm,-,N/A,,Overcast,0,2013-02-03 11:51:00
7:06 AM,6.8,5.0,92,29.96,2.0,Calm,Calm,-,0.00,Snow,Light Snow,0,2013-02-03 12:06:00
7:15 AM,6.8,6.8,100,29.96,3.0,Calm,Calm,-,0.00,,Overcast,0,2013-02-03 12:15:00
7:18 AM,6.8,6.8,100,29.96,1.8,Calm,Calm,-,0.00,,Overcast,0,2013-02-03 12:18:00
7:21 AM,6.8,6.8,100,29.96,1.0,Calm,Calm,-,0.00,,Overcast,0,2013-02-03 12:21:00
7:31 AM,6.8,6.8,100,29.96,1.5,Calm,Calm,-,0.00,,Overcast,0,2013-02-03 12:31:00
7:34 AM,6.8,5.0,92,29.96,3.0,Calm,Calm,-,0.00,,Overcast,0,2013-02-03 12:34:00
7:41 AM,6.8,6.8,100,29.96,1.8,Calm,Calm,-,0.00,,Overcast,0,2013-02-03 12:41:00
7:51 AM,7.0,7.0,100,30.04,1.2,Calm,Calm,-,0.00,,Overcast,0,2013-02-03 12:51:00
8:08 AM,6.8,6.8,100,29.96,1.8,Calm,Calm,-,N/A,,Overcast,0,2013-02-03 13:08:00
8:21 AM,6.8,6.8,100,29.96,2.5,Calm,Calm,-,N/A,,Overcast,0,2013-02-03 13:21:00
8:33 AM,6.8,6.8,100,29.95,1.2,Calm,Calm,-,0.00,Snow,Light Snow,0,2013-02-03 13:33:00
8:38 AM,6.8,6.8,100,29.95,2.0,Calm,Calm,-,0.00,Snow,Light Snow,0,2013-02-03 13:38:00
8:49 AM,8.6,6.8,92,29.95,1.8,Calm,Calm,-,0.00,Snow,Light Snow,0,2013-02-03 13:49:00
8:51 AM,8.6,6.8,92,29.95,2.5,Calm,Calm,-,N/A,Snow,Light Snow,0,2013-02-03 13:51:00
9:20 AM,8.6,8.6,100,29.95,4.0,East,3.5,-,0.00,,Mostly Cloudy,100,2013-02-03 14:20:00
9:35 AM,10.4,10.4,100,29.94,6.0,Calm,Calm,-,0.00,,Scattered Clouds,0,2013-02-03 14:35:00
9:51 AM,10.0,10.0,100,30.02,5.0,Calm,Calm,-,0.00,,Clear,0,2013-02-03 14:51:00
10:51 AM,14.0,12.0,92,30.00,9.0,Calm,Calm,-,N/A,,Clear,0,2013-02-03 15:51:00
11:51 AM,18.0,12.9,81,29.96,10.0,Calm,Calm,-,N/A,,Clear,0,2013-02-03 16:51:00
12:51 PM,18.0,12.0,78,29.92,10.0,Calm,Calm,-,N/A,,Partly Cloudy,0,2013-02-03 17:51:00
1:51 PM,21.0,10.0,63,29.88,10.0,Calm,Calm,-,N/A,,Clear,0,2013-02-03 18:51:00
2:51 PM,21.9,10.0,60,29.86,10.0,ENE,3.5,-,N/A,,Partly Cloudy,70,2013-02-03 19:51:00
3:51 PM,21.9,8.1,55,29.85,10.0,Calm,Calm,-,N/A,,Clear,0,2013-02-03 20:51:00
4:51 PM,19.0,12.9,77,29.84,10.0,Calm,Calm,-,N/A,,Clear,0,2013-02-03 21:51:00
5:51 PM,12.9,8.1,81,29.83,10.0,Calm,Calm,-,N/A,,Partly Cloudy,0,2013-02-03 22:51:00
6:51 PM,14.0,10.0,84,29.83,10.0,Calm,Calm,-,N/A,,Overcast,0,2013-02-03 23:51:00
7:51 PM,12.9,9.0,84,29.82,10.0,Calm,Calm,-,N/A,,Overcast,0,2013-02-04 00:51:00
8:51 PM,14.0,10.9,88,29.83,10.0,SSE,3.5,-,N/A,,Overcast,160,2013-02-04 01:51:00
9:51 PM,15.1,12.0,88,29.81,10.0,Calm,Calm,-,N/A,,Overcast,0,2013-02-04 02:51:00
10:51 PM,14.0,10.9,88,29.79,10.0,Calm,Calm,-,N/A,,Overcast,0,2013-02-04 03:51:00
11:51 PM,16.0,10.0,77,29.77,10.0,Calm,Calm,-,N/A,,Overcast,0,2013-02-04 04:51:00